Flag for Morocco Weather past 2 weeks in Tangier, Morocco

Now
61 °F

Passing clouds.


Feels Like: 61 °F
Forecast: 52 / 85 °F
Wind: 3 mph from Northeast

Location: Tanger Aerodrome

Current Time: May 31, 2015 at 12:39:53 AM

Latest Report: May 31, 2015 at 12:00 AM


Visibility: 4 mi

Pressure: 30.04 "Hg

Humidity: 88%

Dew point: 57 °F

Location of TangierLocation

Historic Weather in Tangier — Graph

°F

Tangier temperature yesterday

Maximum temperature yesterday: 75 °F (at 3:30 PM)
Minimum temperature yesterday: 61 °F (at 1:30 AM)
Average temperature yesterday: 68 °F

Past Weeks' High & Low Weather Summary

 TemperatureHumidityPressure
High88 °F (May 27, 12:30 PM)94% (May 19, 1:00 AM)30.12 "Hg (May 19, 1:00 AM)
Low54 °F (May 16, 1:00 AM)25% (May 27, 12:30 PM)29.83 "Hg (May 28, 5:00 PM)
Average70 °F59%29.98 "Hg
* Reported May 15 11:00 PM — May 30 11:30 PM, Tangier, Weather by CustomWeather, © 2015

Note: Actual official high and low records may vary slightly from our data, if they occured in-between our weather recording intervals... More about our weather records

Advertising

Tangier weather history for previous 24 hours

 ConditionsComfort  
Time TempWeatherWind HumidityBarometerVisibility
11:30 PM
Sat, May 30
61 °FPassing clouds.5 mph88%30.04 "Hg4 mi
11:00 PM61 °FPassing clouds.No wind88%30.04 "Hg4 mi
10:30 PM63 °FPassing clouds.1 mph88%30.04 "Hg4 mi
10:00 PM63 °FPassing clouds.2 mph83%30.04 "Hg4 mi
9:30 PM66 °FPassing clouds.2 mph78%30.04 "Hg4 mi
9:00 PM68 °FPassing clouds.2 mph78%30.04 "Hg5 mi
8:30 PM68 °FPassing clouds.2 mph78%30.04 "HgN/A
8:00 PM70 °FPassing clouds.5 mph78%30.04 "HgN/A
7:30 PM70 °FPassing clouds.6 mph78%30.04 "HgN/A
7:00 PM72 °FPassing clouds.7 mph73%30.04 "HgN/A
6:00 PM72 °FPassing clouds.8 mph73%30.04 "HgN/A
5:30 PM73 °FPassing clouds.9 mph65%30.04 "HgN/A
5:00 PM73 °FPassing clouds.9 mph69%30.04 "HgN/A
4:30 PM73 °FPassing clouds.10 mph65%30.04 "HgN/A
4:00 PM75 °FPassing clouds.9 mph61%30.04 "HgN/A
3:30 PM75 °FPassing clouds.10 mph61%30.04 "HgN/A
3:00 PM73 °FPassing clouds.9 mph65%30.07 "HgN/A
2:30 PM73 °FPassing clouds.10 mph65%30.07 "HgN/A
2:00 PM73 °FPassing clouds.10 mph65%30.07 "HgN/A
1:30 PM73 °FPassing clouds.12 mph65%30.07 "HgN/A
1:00 PM73 °FPassing clouds.9 mph65%30.07 "HgN/A
12:30 PM73 °FPassing clouds.9 mph65%30.07 "HgN/A
12:00 PM73 °FPassing clouds.9 mph61%30.07 "Hg5 mi
11:30 AM73 °FPassing clouds.9 mph61%30.07 "Hg5 mi
11:00 AM72 °FPassing clouds.9 mph65%30.07 "Hg5 mi
10:30 AM72 °FPassing clouds.9 mph69%30.07 "Hg5 mi
10:00 AM72 °FScattered clouds.7 mph69%30.07 "Hg4 mi
9:30 AM70 °FPartly sunny.3 mph73%30.07 "Hg4 mi
9:00 AM68 °FPartly sunny.3 mph83%30.07 "Hg4 mi
8:30 AM68 °FPartly sunny.6 mph83%30.07 "Hg4 mi
8:00 AM66 °FFog.5 mph88%30.07 "Hg2 mi
7:30 AM66 °FFog.6 mph88%30.07 "Hg2 mi
7:00 AM66 °FFog.6 mph88%30.07 "Hg2 mi
6:30 AM66 °FMild.5 mph88%30.04 "Hg1 mi
6:00 AM64 °FPassing clouds.5 mph94%30.04 "Hg1 mi
5:30 AM64 °FPassing clouds.7 mph94%30.04 "Hg1 mi
5:00 AM64 °FFog.9 mph94%30.04 "Hg2 mi
4:30 AM64 °FFog.8 mph94%30.04 "Hg1 mi
4:00 AM64 °FFog.8 mph94%30.04 "Hg1 mi
3:30 AM64 °FFog.8 mph94%30.04 "Hg1 mi
3:00 AM66 °FFog.6 mph88%30.04 "Hg1 mi
2:30 AM63 °FFog.5 mph94%30.04 "Hg2 mi
2:00 AM63 °FFog.3 mph88%30.04 "Hg2 mi
1:30 AM61 °FClear.2 mph88%30.04 "Hg4 mi
1:00 AM63 °FClear.2 mph88%30.04 "Hg4 mi
12:30 AM63 °FClear.3 mph88%30.04 "Hg4 mi
12:00 AM64 °FClear.2 mph88%30.04 "Hg4 mi
Weather by CustomWeather, © 2015

See weather overviewHow to use our weather pages